START_TIME,STEP,MOV.,P11,t_acc.,P23,t_acc.,P27,t_acc.,A4,t_acc.
1986-01-24 18:00:24.560 ,6,0,66.,4.8,0.,4.8,0.,4.8,0.,4.8
1986-01-24 18:00:29.360 ,6,0,76.,4.8,0.,4.8,0.,4.8,0.,4.8
1986-01-24 18:00:34.160 ,6,0,76.,4.8,0.,4.8,0.,4.8,0.,4.8
1986-01-24 18:00:38.960 ,6,0,76.,4.8,0.,4.8,0.,4.8,0.,4.8
1986-01-24 18:00:43.760 ,6,0,80.,4.8,0.,4.8,0.,4.8,0.,4.8
1986-01-24 18:00:48.560 ,5,1,66.,4.8,0.,4.8,0.,4.8,0.,4.8
1986-01-24 18:00:53.360 ,5,1,19.,4.8,0.,4.8,0.,4.8,0.,4.8
1986-01-24 18:00:58.160 ,5,1,18.,4.8,0.,4.8,0.,4.8,0.,4.8
1986-01-24 18:01:02.960 ,5,1,49.,4.8,0.,4.8,0.,4.8,0.,4.8
1986-01-24 18:01:07.760 ,5,1,82.,4.8,0.,4.8,0.,4.8,0.,4.8
1986-01-24 18:01:12.560 ,1,1,102.,4.8,0.,4.8,0.,4.8,0.,4.8
1986-01-24 18:01:17.360 ,1,1,172.,4.8,0.,4.8,0.,4.8,0.,4.8
1986-01-24 18:01:22.160 ,1,1,116.,4.8,0.,4.8,0.,4.8,0.,4.8
1986-01-24 18:01:26.960 ,1,1,100.,4.8,0.,4.8,0.,4.8,0.,4.8
1986-01-24 18:01:31.760 ,1,1,106.,4.8,0.,4.8,0.,4.8,0.,4.8
1986-01-24 18:01:36.560 ,2,1,92.,4.8,0.,4.8,0.,4.8,0.,4.8
1986-01-24 18:01:41.360 ,2,1,176.,4.8,0.,4.8,0.,4.8,0.,4.8
1986-01-24 18:01:46.160 ,2,1,176.,4.8,0.,4.8,0.,4.8,0.,4.8
1986-01-24 18:01:50.960 ,2,1,132.,4.8,0.,4.8,0.,4.8,0.,4.8
1986-01-24 18:01:55.760 ,2,1,92.,4.8,0.,4.8,0.,4.8,0.,4.8
1986-01-24 18:02:00.560 ,6,1,108.,4.8,0.,4.8,0.,4.8,0.,4.8
1986-01-24 18:02:05.360 ,6,1,152.,4.8,0.,4.8,0.,4.8,0.,4.8
1986-01-24 18:02:10.160 ,6,1,192.,4.8,0.,4.8,0.,4.8,0.,4.8
1986-01-24 18:02:14.960 ,6,1,156.,4.8,0.,4.8,0.,4.8,0.,4.8
1986-01-24 18:02:19.760 ,6,1,98.,4.8,0.,4.8,0.,4.8,0.,4.8
1986-01-24 18:02:24.560 ,6,0,80.,4.8,0.,4.8,0.,4.8,0.,4.8
1986-01-24 18:02:29.360 ,6,0,118.,4.8,0.,4.8,0.,4.8,0.,4.8
1986-01-24 18:02:34.160 ,6,0,108.,4.8,0.,4.8,0.,4.8,0.,4.8
1986-01-24 18:02:38.960 ,6,0,104.,4.8,0.,4.8,0.,4.8,0.,4.8
1986-01-24 18:02:43.760 ,6,0,98.,4.8,0.,4.8,0.,4.8,0.,4.8
1986-01-24 18:02:48.560 ,6,0,136.,4.8,0.,4.8,0.,4.8,0.,4.8
1986-01-24 18:02:53.360 ,6,0,122.,4.8,0.,4.8,0.,4.8,0.,4.8
1986-01-24 18:02:58.160 ,6,0,136.,4.8,0.,4.8,0.,4.8,0.,4.8
1986-01-24 18:03:02.960 ,6,0,124.,4.8,0.,4.8,0.,4.8,0.,4.8
1986-01-24 18:03:07.760 ,6,0,136.,4.8,0.,4.8,0.,4.8,0.,4.8
1986-01-24 18:03:12.560 ,6,0,126.,4.8,0.,4.8,0.,4.8,0.,4.8
1986-01-24 18:03:17.360 ,6,0,148.,4.8,0.,4.8,0.,4.8,0.,4.8
1986-01-24 18:03:22.160 ,6,0,156.,4.8,0.,4.8,0.,4.8,0.,4.8
1986-01-24 18:03:26.960 ,6,0,176.,4.8,0.,4.8,0.,4.8,0.,4.8
1986-01-24 18:03:31.760 ,6,0,208.,4.8,0.,4.8,0.,4.8,0.,4.8
1986-01-24 18:03:36.560 ,6,0,204.,4.8,0.,4.8,0.,4.8,0.,4.8
1986-01-24 18:03:41.360 ,6,0,184.,4.8,0.,4.8,0.,4.8,0.,4.8
1986-01-24 18:03:46.160 ,6,0,204.,4.8,0.,4.8,0.,4.8,0.,4.8
1986-01-24 18:03:50.960 ,6,0,212.,4.8,0.,4.8,0.,4.8,0.,4.8
1986-01-24 18:03:55.760 ,6,0,224.,4.8,0.,4.8,0.,4.8,0.,4.8
1986-01-24 18:04:00.560 ,6,0,240.,4.8,0.,4.8,0.,4.8,0.,4.8
1986-01-24 18:04:05.360 ,6,0,264.,4.8,0.,4.8,0.,4.8,0.,4.8
1986-01-24 18:04:10.160 ,6,0,256.,4.8,0.,4.8,0.,4.8,0.,4.8
1986-01-24 18:04:14.960 ,6,0,288.,4.8,0.,4.8,0.,4.8,0.,4.8
1986-01-24 18:04:19.760 ,6,0,296.,4.8,0.,4.8,0.,4.8,0.,4.8
1986-01-24 18:04:24.560 ,6,0,320.,4.8,0.,4.8,0.,4.8,0.,4.8
1986-01-24 18:04:29.360 ,6,0,312.,4.8,0.,4.8,0.,4.8,0.,4.8
1986-01-24 18:04:34.160 ,6,0,320.,4.8,0.,4.8,0.,4.8,0.,4.8
1986-01-24 18:04:38.960 ,6,0,360.,4.8,0.,4.8,0.,4.8,0.,4.8
1986-01-24 18:04:43.760 ,6,0,352.,4.8,0.,4.8,0.,4.8,0.,4.8
1986-01-24 18:04:48.560 ,6,0,376.,4.8,0.,4.8,0.,4.8,0.,4.8
1986-01-24 18:04:53.360 ,6,0,376.,4.8,0.,4.8,0.,4.8,0.,4.8
1986-01-24 18:04:58.160 ,6,0,400.,4.8,0.,4.8,0.,4.8,0.,4.8
1986-01-24 18:05:02.960 ,6,0,408.,4.8,0.,4.8,0.,4.8,0.,4.8
1986-01-24 18:05:07.760 ,6,0,432.,4.8,0.,4.8,0.,4.8,0.,4.8
1986-01-24 18:05:12.560 ,6,0,424.,4.8,0.,4.8,0.,4.8,0.,4.8
1986-01-24 18:05:17.360 ,6,0,456.,4.8,0.,4.8,0.,4.8,0.,4.8
1986-01-24 18:05:22.160 ,6,0,488.,4.8,0.,4.8,0.,4.8,0.,4.8
1986-01-24 18:05:26.960 ,6,0,448.,4.8,0.,4.8,0.,4.8,0.,4.8
1986-01-24 18:05:31.760 ,6,0,480.,4.8,0.,4.8,0.,4.8,0.,4.8
1986-01-24 18:05:36.560 ,6,0,504.,4.8,0.,4.8,0.,4.8,0.,4.8
1986-01-24 18:05:41.360 ,6,0,512.,4.8,0.,4.8,0.,4.8,0.,4.8
1986-01-24 18:05:46.160 ,6,0,512.,4.8,0.,4.8,0.,4.8,0.,4.8
1986-01-24 18:05:50.960 ,6,0,512.,4.8,0.,4.8,0.,4.8,0.,4.8
1986-01-24 18:05:55.760 ,6,0,504.,4.8,0.,4.8,0.,4.8,0.,4.8
1986-01-24 18:06:00.560 ,6,0,592.,4.8,0.,4.8,0.,4.8,0.,4.8
1986-01-24 18:06:05.360 ,6,0,560.,4.8,0.,4.8,0.,4.8,0.,4.8
1986-01-24 18:06:10.160 ,6,0,576.,4.8,0.,4.8,0.,4.8,0.,4.8
1986-01-24 18:06:14.960 ,6,0,624.,4.8,0.,4.8,0.,4.8,0.,4.8
1986-01-24 18:06:19.760 ,6,0,576.,4.8,0.,4.8,0.,4.8,0.,4.8
1986-01-24 18:06:24.560 ,6,0,608.,4.8,0.,4.8,0.,4.8,0.,4.8
1986-01-24 18:06:29.360 ,6,0,624.,4.8,0.,4.8,0.,4.8,0.,4.8
1986-01-24 18:06:34.160 ,6,0,592.,4.8,0.,4.8,0.,4.8,0.,4.8
1986-01-24 18:06:38.960 ,6,0,624.,4.8,0.,4.8,0.,4.8,0.,4.8
1986-01-24 18:06:43.760 ,6,0,624.,4.8,0.,4.8,0.,4.8,0.,4.8
1986-01-24 18:06:48.560 ,6,0,672.,4.8,0.,4.8,0.,4.8,0.,4.8
1986-01-24 18:06:53.360 ,6,0,640.,4.8,0.,4.8,0.,4.8,0.,4.8
1986-01-24 18:06:58.160 ,6,0,608.,4.8,0.,4.8,0.,4.8,0.,4.8
1986-01-24 18:07:02.960 ,6,0,688.,4.8,0.,4.8,0.,4.8,0.,4.8
1986-01-24 18:07:07.760 ,6,0,656.,4.8,0.,4.8,0.,4.8,0.,4.8
1986-01-24 18:07:28.760 ,6,0,,0,,0,,0,,0
1986-01-24 18:07:33.560 ,6,0,,0,,0,,0,,0
1986-01-24 18:07:38.360 ,6,0,,0,,0,,0,,0
1986-01-24 18:07:43.160 ,6,0,,0,,0,,0,,0
1986-01-24 18:07:47.960 ,6,0,688.,4.8,0.,4.8,0.,4.8,0.,4.8
1986-01-24 18:07:36.560 ,6,0,752.,4.8,0.,4.8,0.,4.8,0.,4.8
1986-01-24 18:07:41.360 ,6,0,784.,4.8,0.,4.8,0.,4.8,0.,4.8
1986-01-24 18:07:46.160 ,6,0,784.,4.8,0.,4.8,0.,4.8,0.,4.8
1986-01-24 18:07:50.960 ,6,0,784.,4.8,0.,4.8,0.,4.8,0.,4.8
1986-01-24 18:07:55.760 ,6,0,800.,4.8,0.,4.8,0.,4.8,0.,4.8
1986-01-24 18:08:00.560 ,6,0,800.,4.8,0.,4.8,0.,4.8,0.,4.8
1986-01-24 18:08:05.360 ,6,0,816.,4.8,0.,4.8,0.,4.8,0.,4.8
1986-01-24 18:08:10.160 ,6,0,848.,4.8,0.,4.8,0.,4.8,0.,4.8
1986-01-24 18:08:14.960 ,6,0,800.,4.8,0.,4.8,0.,4.8,0.,4.8
1986-01-24 18:08:19.760 ,6,0,816.,4.8,0.,4.8,0.,4.8,0.,4.8
1986-01-24 18:08:24.560 ,6,0,848.,4.8,0.,4.8,0.,4.8,0.,4.8
1986-01-24 18:08:29.360 ,6,0,816.,4.8,0.,4.8,0.,4.8,0.,4.8
1986-01-24 18:08:34.160 ,6,0,880.,4.8,0.,4.8,0.,4.8,0.,4.8
1986-01-24 18:08:38.960 ,6,0,928.,4.8,0.,4.8,0.,4.8,0.,4.8
1986-01-24 18:08:43.760 ,6,0,864.,4.8,0.,4.8,0.,4.8,0.,4.8
1986-01-24 18:08:48.560 ,6,0,928.,4.8,0.,4.8,0.,4.8,0.,4.8
1986-01-24 18:08:53.360 ,6,0,864.,4.8,0.,4.8,0.,4.8,0.,4.8
1986-01-24 18:08:58.160 ,6,0,912.,4.8,0.,4.8,0.,4.8,0.,4.8
1986-01-24 18:09:02.960 ,6,0,912.,4.8,0.,4.8,0.,4.8,0.,4.8
1986-01-24 18:09:07.760 ,6,0,960.,4.8,0.,4.8,0.,4.8,0.,4.8
1986-01-24 18:09:12.560 ,6,0,976.,4.8,0.,4.8,0.,4.8,0.,4.8
1986-01-24 18:09:17.360 ,6,0,976.,4.8,0.,4.8,0.,4.8,0.,4.8
1986-01-24 18:09:22.160 ,6,0,992.,4.8,0.,4.8,0.,4.8,0.,4.8
1986-01-24 18:09:26.960 ,6,0,960.,4.8,0.,4.8,0.,4.8,0.,4.8
1986-01-24 18:09:31.760 ,6,0,992.,4.8,0.,4.8,0.,4.8,0.,4.8
1986-01-24 18:09:36.560 ,6,0,1024.,4.8,0.,4.8,0.,4.8,0.,4.8
1986-01-24 18:09:41.360 ,6,0,1024.,4.8,0.,4.8,0.,4.8,0.,4.8
1986-01-24 18:09:46.160 ,6,0,1056.,4.8,0.,4.8,0.,4.8,0.,4.8
1986-01-24 18:09:50.960 ,6,0,1024.,4.8,0.,4.8,0.,4.8,0.,4.8
1986-01-24 18:09:55.760 ,6,0,1088.,4.8,0.,4.8,0.,4.8,0.,4.8
1986-01-24 18:10:00.560 ,6,0,1088.,4.8,0.,4.8,0.,4.8,0.,4.8
1986-01-24 18:10:05.360 ,6,0,1088.,4.8,0.,4.8,0.,4.8,0.,4.8
1986-01-24 18:10:10.160 ,6,0,1120.,4.8,0.,4.8,0.,4.8,0.,4.8
1986-01-24 18:10:14.960 ,6,0,1152.,4.8,0.,4.8,0.,4.8,0.,4.8
1986-01-24 18:10:19.760 ,6,0,1152.,4.8,0.,4.8,0.,4.8,0.,4.8
1986-01-24 18:10:24.560 ,6,0,1152.,4.8,0.,4.8,0.,4.8,0.,4.8
1986-01-24 18:10:29.360 ,6,0,1152.,4.8,0.,4.8,0.,4.8,0.,4.8
1986-01-24 18:10:34.160 ,6,0,1184.,4.8,0.,4.8,0.,4.8,0.,4.8
1986-01-24 18:10:38.960 ,6,0,1120.,4.8,0.,4.8,0.,4.8,0.,4.8
1986-01-24 18:10:43.760 ,6,0,1152.,4.8,0.,4.8,0.,4.8,0.,4.8
1986-01-24 18:10:48.560 ,6,0,1216.,4.8,0.,4.8,0.,4.8,0.,4.8
1986-01-24 18:10:53.360 ,6,0,1216.,4.8,0.,4.8,0.,4.8,0.,4.8
1986-01-24 18:10:58.160 ,6,0,1216.,4.8,0.,4.8,0.,4.8,0.,4.8
1986-01-24 18:11:02.960 ,6,0,1248.,4.8,0.,4.8,0.,4.8,0.,4.8
1986-01-24 18:11:07.760 ,6,0,1280.,4.8,0.,4.8,0.,4.8,0.,4.8
1986-01-24 18:11:12.560 ,6,0,1216.,4.8,0.,4.8,0.,4.8,0.,4.8
1986-01-24 18:11:17.360 ,6,0,1248.,4.8,0.,4.8,0.,4.8,0.,4.8
1986-01-24 18:11:22.160 ,6,0,1248.,4.8,0.,4.8,0.,4.8,0.,4.8
1986-01-24 18:11:26.960 ,6,0,1280.,4.8,0.,4.8,0.,4.8,0.,4.8
1986-01-24 18:11:31.760 ,6,0,1216.,4.8,0.,4.8,0.,4.8,0.,4.8
1986-01-24 18:11:36.560 ,6,0,1280.,4.8,0.,4.8,0.,4.8,0.,4.8
1986-01-24 18:11:41.360 ,6,0,1312.,4.8,0.,4.8,0.,4.8,0.,4.8
1986-01-24 18:11:46.160 ,6,0,1312.,4.8,0.,4.8,0.,4.8,0.,4.8
1986-01-24 18:11:50.960 ,6,0,1312.,4.8,0.,4.8,0.,4.8,0.,4.8
1986-01-24 18:11:55.760 ,6,0,1376.,4.8,0.,4.8,0.,4.8,0.,4.8
1986-01-24 18:12:00.560 ,6,0,1280.,4.8,0.,4.8,0.,4.8,0.,4.8
1986-01-24 18:12:05.360 ,6,0,1376.,4.8,0.,4.8,0.,4.8,0.,4.8
1986-01-24 18:12:10.160 ,6,0,1408.,4.8,0.,4.8,0.,4.8,0.,4.8
1986-01-24 18:12:14.960 ,6,0,1312.,4.8,0.,4.8,0.,4.8,0.,4.8
1986-01-24 18:12:19.760 ,6,0,1376.,4.8,0.,4.8,0.,4.8,0.,4.8
1986-01-24 18:12:24.560 ,6,0,1376.,4.8,0.,4.8,0.,4.8,0.,4.8
1986-01-24 18:12:29.360 ,6,0,1440.,4.8,0.,4.8,0.,4.8,0.,4.8
1986-01-24 18:12:34.160 ,6,0,1504.,4.8,0.,4.8,0.,4.8,0.,4.8
1986-01-24 18:12:38.960 ,6,0,1376.,4.8,0.,4.8,0.,4.8,0.,4.8
1986-01-24 18:12:43.760 ,6,0,1504.,4.8,0.,4.8,0.,4.8,0.,4.8
1986-01-24 18:12:48.560 ,5,1,1344.,4.8,0.,4.8,0.,4.8,0.,4.8
1986-01-24 18:12:53.360 ,5,1,118.,4.8,0.,4.8,0.,4.8,0.,4.8
1986-01-24 18:12:58.160 ,5,1,136.,4.8,0.,4.8,0.,4.8,0.,4.8
1986-01-24 18:13:02.960 ,5,1,928.,4.8,0.,4.8,0.,4.8,0.,4.8
1986-01-24 18:13:07.760 ,5,1,1568.,4.8,0.,4.8,0.,4.8,0.,4.8
1986-01-24 18:13:12.560 ,1,1,1568.,4.8,0.,4.8,0.,4.8,0.,4.8
1986-01-24 18:13:17.360 ,1,1,1536.,4.8,0.,4.8,0.,4.8,0.,4.8
1986-01-24 18:13:22.160 ,1,1,1248.,4.8,0.,4.8,0.,4.8,0.,4.8
1986-01-24 18:13:26.960 ,1,1,1472.,4.8,0.,4.8,0.,4.8,0.,4.8
1986-01-24 18:13:31.760 ,1,1,1568.,4.8,0.,4.8,0.,4.8,0.,4.8
1986-01-24 18:13:36.560 ,2,1,1600.,4.8,0.,4.8,0.,4.8,0.,4.8
1986-01-24 18:13:41.360 ,2,1,1600.,4.8,0.,4.8,0.,4.8,0.,4.8
1986-01-24 18:13:46.160 ,2,1,1632.,4.8,0.,4.8,0.,4.8,0.,4.8
1986-01-24 18:13:50.960 ,2,1,1664.,4.8,0.,4.8,0.,4.8,0.,4.8
1986-01-24 18:13:55.760 ,2,1,1632.,4.8,0.,4.8,0.,4.8,0.,4.8
1986-01-24 18:14:00.560 ,6,1,1664.,4.8,0.,4.8,0.,4.8,0.,4.8
1986-01-24 18:14:05.360 ,6,1,1344.,4.8,0.,4.8,0.,4.8,0.,4.8
1986-01-24 18:14:10.160 ,6,1,1568.,4.8,0.,4.8,0.,4.8,0.,4.8
1986-01-24 18:14:14.960 ,6,1,1728.,4.8,0.,4.8,0.,4.8,0.,4.8
1986-01-24 18:14:19.760 ,6,1,1664.,4.8,0.,4.8,0.,4.8,0.,4.8
1986-01-24 18:14:24.560 ,6,0,1664.,4.8,0.,4.8,0.,4.8,0.,4.8
1986-01-24 18:14:29.360 ,6,0,1760.,4.8,0.,4.8,0.,4.8,0.,4.8
1986-01-24 18:14:34.160 ,6,0,1696.,4.8,0.,4.8,0.,4.8,0.,4.8
1986-01-24 18:14:38.960 ,6,0,1760.,4.8,0.,4.8,0.,4.8,0.,4.8
1986-01-24 18:14:43.760 ,6,0,1696.,4.8,0.,4.8,0.,4.8,0.,4.8
1986-01-24 18:14:48.560 ,6,0,1792.,4.8,0.,4.8,0.,4.8,0.,4.8
1986-01-24 18:14:53.360 ,6,0,1696.,4.8,0.,4.8,0.,4.8,0.,4.8
1986-01-24 18:14:58.160 ,6,0,1696.,4.8,0.,4.8,0.,4.8,0.,4.8
1986-01-24 18:15:02.960 ,6,0,1728.,4.8,0.,4.8,0.,4.8,0.,4.8
1986-01-24 18:15:07.760 ,6,0,1760.,4.8,0.,4.8,0.,4.8,0.,4.8
1986-01-24 18:15:12.560 ,6,0,1728.,4.8,0.,4.8,0.,4.8,0.,4.8
1986-01-24 18:15:17.360 ,6,0,1792.,4.8,0.,4.8,0.,4.8,0.,4.8
1986-01-24 18:15:22.160 ,6,0,1824.,4.8,0.,4.8,0.,4.8,0.,4.8
1986-01-24 18:15:26.960 ,6,0,1856.,4.8,0.,4.8,0.,4.8,0.,4.8
1986-01-24 18:15:31.760 ,6,0,1856.,4.8,0.,4.8,0.,4.8,0.,4.8
1986-01-24 18:15:36.560 ,6,0,1824.,4.8,0.,4.8,0.,4.8,0.,4.8
1986-01-24 18:15:41.360 ,6,0,1792.,4.8,0.,4.8,0.,4.8,0.,4.8
1986-01-24 18:15:46.160 ,6,0,1856.,4.8,0.,4.8,0.,4.8,0.,4.8
1986-01-24 18:15:50.960 ,6,0,1856.,4.8,0.,4.8,0.,4.8,0.,4.8
1986-01-24 18:15:55.760 ,6,0,1888.,4.8,0.,4.8,0.,4.8,0.,4.8
1986-01-24 18:16:00.560 ,6,0,1920.,4.8,0.,4.8,0.,4.8,0.,4.8
1986-01-24 18:16:05.360 ,6,0,1920.,4.8,0.,4.8,0.,4.8,6528.,4.8
1986-01-24 18:16:10.160 ,6,0,1888.,4.8,0.,4.8,0.,4.8,0.,4.8
1986-01-24 18:16:14.960 ,6,0,1920.,4.8,0.,4.8,0.,4.8,0.,4.8
1986-01-24 18:16:19.760 ,6,0,1920.,4.8,0.,4.8,0.,4.8,0.,4.8
1986-01-24 18:16:24.560 ,6,0,2016.,4.8,0.,4.8,0.,4.8,0.,4.8
1986-01-24 18:16:29.360 ,6,0,1952.,4.8,0.,4.8,0.,4.8,0.,4.8
1986-01-24 18:16:34.160 ,6,0,1984.,4.8,0.,4.8,0.,4.8,0.,4.8
1986-01-24 18:16:38.960 ,6,0,2016.,4.8,0.,4.8,0.,4.8,0.,4.8
1986-01-24 18:16:43.760 ,6,0,2048.,4.8,0.,4.8,0.,4.8,0.,4.8
1986-01-24 18:16:48.560 ,6,0,2016.,4.8,0.,4.8,0.,4.8,0.,4.8
1986-01-24 18:16:53.360 ,6,0,1952.,4.8,0.,4.8,0.,4.8,0.,4.8
1986-01-24 18:16:58.160 ,6,0,2048.,4.8,0.,4.8,0.,4.8,0.,4.8
1986-01-24 18:17:02.960 ,6,0,2048.,4.8,0.,4.8,0.,4.8,0.,4.8
1986-01-24 18:17:07.760 ,6,0,2016.,4.8,0.,4.8,0.,4.8,0.,4.8
1986-01-24 18:17:12.560 ,6,0,2048.,4.8,0.,4.8,0.,4.8,0.,4.8
1986-01-24 18:17:17.360 ,6,0,2112.,4.8,0.,4.8,0.,4.8,0.,4.8
1986-01-24 18:17:22.160 ,6,0,2048.,4.8,0.,4.8,0.,4.8,0.,4.8
1986-01-24 18:17:26.960 ,6,0,2112.,4.8,0.,4.8,0.,4.8,0.,4.8
1986-01-24 18:17:31.760 ,6,0,2112.,4.8,0.,4.8,0.,4.8,0.,4.8
1986-01-24 18:17:36.560 ,6,0,2112.,4.8,0.,4.8,0.,4.8,0.,4.8
1986-01-24 18:17:41.360 ,6,0,2176.,4.8,0.,4.8,0.,4.8,0.,4.8
1986-01-24 18:17:46.160 ,6,0,2176.,4.8,0.,4.8,0.,4.8,0.,4.8
1986-01-24 18:17:50.960 ,6,0,2112.,4.8,0.,4.8,0.,4.8,0.,4.8
1986-01-24 18:17:55.760 ,6,0,2112.,4.8,0.,4.8,0.,4.8,0.,4.8
1986-01-24 18:18:00.560 ,6,0,2240.,4.8,0.,4.8,0.,4.8,0.,4.8
1986-01-24 18:18:05.360 ,6,0,2112.,4.8,0.,4.8,0.,4.8,0.,4.8
1986-01-24 18:18:10.160 ,6,0,2176.,4.8,0.,4.8,0.,4.8,0.,4.8
1986-01-24 18:18:14.960 ,6,0,2240.,4.8,0.,4.8,0.,4.8,0.,4.8
1986-01-24 18:18:19.760 ,6,0,2176.,4.8,0.,4.8,0.,4.8,0.,4.8
1986-01-24 18:18:24.560 ,6,0,2176.,4.8,0.,4.8,0.,4.8,0.,4.8
1986-01-24 18:18:29.360 ,6,0,2304.,4.8,0.,4.8,0.,4.8,0.,4.8
1986-01-24 18:18:34.160 ,6,0,2304.,4.8,0.,4.8,0.,4.8,0.,4.8
1986-01-24 18:18:38.960 ,6,0,2176.,4.8,0.,4.8,0.,4.8,0.,4.8
1986-01-24 18:18:43.760 ,6,0,2304.,4.8,0.,4.8,0.,4.8,0.,4.8
1986-01-24 18:18:48.560 ,6,0,2240.,4.8,0.,4.8,0.,4.8,0.,4.8
1986-01-24 18:18:53.360 ,6,0,2368.,4.8,0.,4.8,0.,4.8,0.,4.8
1986-01-24 18:18:58.160 ,6,0,2368.,4.8,0.,4.8,0.,4.8,0.,4.8
1986-01-24 18:19:02.960 ,6,0,2240.,4.8,0.,4.8,0.,4.8,0.,4.8
1986-01-24 18:19:07.760 ,6,0,2304.,4.8,0.,4.8,0.,4.8,0.,4.8
1986-01-24 18:19:12.560 ,6,0,2304.,4.8,0.,4.8,0.,4.8,0.,4.8
1986-01-24 18:19:17.360 ,6,0,2304.,4.8,0.,4.8,0.,4.8,0.,4.8
1986-01-24 18:19:22.160 ,6,0,2304.,4.8,0.,4.8,0.,4.8,0.,4.8
1986-01-24 18:19:26.960 ,6,0,2368.,4.8,0.,4.8,0.,4.8,0.,4.8
1986-01-24 18:19:31.760 ,6,0,2496.,4.8,0.,4.8,0.,4.8,0.,4.8
1986-01-24 18:19:36.560 ,6,0,2432.,4.8,0.,4.8,0.,4.8,0.,4.8
1986-01-24 18:19:41.360 ,6,0,2432.,4.8,0.,4.8,0.,4.8,0.,4.8
1986-01-24 18:19:46.160 ,6,0,2432.,4.8,0.,4.8,0.,4.8,0.,4.8
1986-01-24 18:19:50.960 ,6,0,2432.,4.8,0.,4.8,0.,4.8,0.,4.8
1986-01-24 18:19:55.760 ,6,0,2368.,4.8,0.,4.8,0.,4.8,0.,4.8
1986-01-24 18:20:00.560 ,6,0,2496.,4.8,0.,4.8,0.,4.8,0.,4.8
1986-01-24 18:20:05.360 ,6,0,2432.,4.8,0.,4.8,0.,4.8,0.,4.8
1986-01-24 18:20:10.160 ,6,0,2432.,4.8,0.,4.8,0.,4.8,0.,4.8
1986-01-24 18:20:14.960 ,6,0,2432.,4.8,0.,4.8,0.,4.8,0.,4.8
1986-01-24 18:20:19.760 ,6,0,2560.,4.8,0.,4.8,0.,4.8,0.,4.8
1986-01-24 18:20:24.560 ,6,0,2432.,4.8,0.,4.8,0.,4.8,0.,4.8
1986-01-24 18:20:29.360 ,6,0,2496.,4.8,0.,4.8,0.,4.8,0.,4.8
1986-01-24 18:20:34.160 ,6,0,2560.,4.8,0.,4.8,0.,4.8,0.,4.8
1986-01-24 18:20:38.960 ,6,0,2496.,4.8,0.,4.8,0.,4.8,0.,4.8
1986-01-24 18:20:43.760 ,6,0,2496.,4.8,0.,4.8,0.,4.8,0.,4.8
1986-01-24 18:20:48.560 ,6,0,2496.,4.8,0.,4.8,0.,4.8,0.,4.8
1986-01-24 18:20:53.360 ,6,0,2560.,4.8,0.,4.8,0.,4.8,0.,4.8
1986-01-24 18:20:58.160 ,6,0,2496.,4.8,0.,4.8,0.,4.8,0.,4.8
1986-01-24 18:21:02.960 ,6,0,2624.,4.8,0.,4.8,0.,4.8,0.,4.8
1986-01-24 18:21:07.760 ,6,0,2624.,4.8,0.,4.8,0.,4.8,0.,4.8
1986-01-24 18:21:12.560 ,6,0,2624.,4.8,0.,4.8,0.,4.8,0.,4.8
1986-01-24 18:21:17.360 ,6,0,2496.,4.8,0.,4.8,0.,4.8,0.,4.8
1986-01-24 18:21:22.160 ,6,0,2624.,4.8,0.,4.8,0.,4.8,0.,4.8
1986-01-24 18:21:26.960 ,6,0,2752.,4.8,0.,4.8,0.,4.8,0.,4.8
1986-01-24 18:21:31.760 ,6,0,2624.,4.8,0.,4.8,0.,4.8,0.,4.8
1986-01-24 18:21:36.560 ,6,0,2624.,4.8,0.,4.8,0.,4.8,0.,4.8
1986-01-24 18:21:41.360 ,6,0,2624.,4.8,0.,4.8,0.,4.8,0.,4.8
1986-01-24 18:21:46.160 ,6,0,2688.,4.8,0.,4.8,0.,4.8,0.,4.8
1986-01-24 18:21:50.960 ,6,0,2624.,4.8,0.,4.8,0.,4.8,0.,4.8
1986-01-24 18:21:55.760 ,6,0,2752.,4.8,0.,4.8,0.,4.8,0.,4.8
1986-01-24 18:22:00.560 ,6,0,2560.,4.8,0.,4.8,0.,4.8,0.,4.8
1986-01-24 18:22:05.360 ,6,0,2624.,4.8,0.,4.8,0.,4.8,0.,4.8
1986-01-24 18:22:10.160 ,6,0,2624.,4.8,0.,4.8,0.,4.8,0.,4.8
1986-01-24 18:22:14.960 ,6,0,2688.,4.8,0.,4.8,0.,4.8,0.,4.8
1986-01-24 18:22:19.760 ,6,0,2752.,4.8,0.,4.8,0.,4.8,0.,4.8
1986-01-24 18:22:24.560 ,6,0,2688.,4.8,0.,4.8,0.,4.8,0.,4.8
1986-01-24 18:22:29.360 ,6,0,2816.,4.8,0.,4.8,0.,4.8,0.,4.8
1986-01-24 18:22:34.160 ,6,0,2816.,4.8,0.,4.8,0.,4.8,0.,4.8
1986-01-24 18:22:38.960 ,6,0,2688.,4.8,0.,4.8,0.,4.8,0.,4.8
1986-01-24 18:22:43.760 ,6,0,2688.,4.8,0.,4.8,0.,4.8,0.,4.8
1986-01-24 18:22:48.560 ,6,0,2880.,4.8,0.,4.8,0.,4.8,0.,4.8
1986-01-24 18:22:53.360 ,6,0,2624.,4.8,0.,4.8,0.,4.8,0.,4.8
1986-01-24 18:22:58.160 ,6,0,2880.,4.8,0.,4.8,0.,4.8,0.,4.8
1986-01-24 18:23:02.960 ,6,0,2752.,4.8,0.,4.8,0.,4.8,0.,4.8
1986-01-24 18:23:07.760 ,6,0,2880.,4.8,0.,4.8,0.,4.8,0.,4.8
1986-01-24 18:23:14.360 ,6,0,,0,,0,,0,,0
1986-01-24 18:23:19.160 ,6,0,2752.,4.8,0.,4.8,0.,4.8,0.,4.8
1986-01-24 18:23:23.960 ,6,0,2688.,4.8,0.,4.8,0.,4.8,0.,4.8
1986-01-24 18:23:28.760 ,6,0,2880.,4.8,0.,4.8,0.,4.8,0.,4.8
1986-01-24 18:23:33.560 ,6,0,2816.,4.8,0.,4.8,0.,4.8,0.,4.8
1986-01-24 18:23:36.560 ,6,0,2880.,4.8,0.,4.8,0.,4.8,0.,4.8
1986-01-24 18:23:41.360 ,6,0,2880.,4.8,0.,4.8,0.,4.8,0.,4.8
1986-01-24 18:23:46.160 ,6,0,2816.,4.8,0.,4.8,0.,4.8,0.,4.8
1986-01-24 18:23:50.960 ,6,0,2752.,4.8,0.,4.8,0.,4.8,1.,4.8
1986-01-24 18:23:55.760 ,6,0,2944.,4.8,0.,4.8,0.,4.8,0.,4.8
1986-01-24 18:24:34.160 ,6,0,,0,,0,,0,,0
1986-01-24 18:24:38.960 ,6,0,,0,,0,,0,,0
1986-01-24 18:24:43.760 ,6,0,2944.,4.8,0.,4.8,0.,4.8,0.,4.8
1986-01-24 18:24:48.560 ,6,0,2944.,4.8,0.,4.8,0.,4.8,0.,4.8
1986-01-24 18:24:53.360 ,6,0,,0,,0,,0,,0
1986-01-24 18:24:50.360 ,5,1,,0,,0,,0,,0
1986-01-24 18:24:55.160 ,5,1,320.,4.8,0.,4.8,0.,4.8,0.,4.8
1986-01-24 18:24:59.960 ,5,1,312.,4.8,0.,4.8,0.,4.8,0.,4.8
1986-01-24 18:25:04.760 ,5,1,1888.,4.8,0.,4.8,0.,4.8,0.,4.8
1986-01-24 18:25:09.560 ,5,1,2944.,4.8,0.,4.8,0.,4.8,0.,4.8
1986-01-24 18:25:12.560 ,1,1,3136.,4.8,0.,4.8,0.,4.8,0.,4.8
1986-01-24 18:25:17.360 ,1,1,3008.,4.8,0.,4.8,0.,4.8,0.,4.8
1986-01-24 18:25:22.160 ,1,1,2624.,4.8,0.,4.8,0.,4.8,0.,4.8
1986-01-24 18:25:26.960 ,1,1,3008.,4.8,0.,4.8,0.,4.8,0.,4.8
1986-01-24 18:25:31.760 ,1,1,3264.,4.8,0.,4.8,0.,4.8,0.,4.8
1986-01-24 18:25:36.560 ,2,1,3072.,4.8,0.,4.8,0.,4.8,0.,4.8
1986-01-24 18:25:41.360 ,2,1,3008.,4.8,0.,4.8,0.,4.8,0.,4.8
1986-01-24 18:25:46.160 ,2,1,3072.,4.8,0.,4.8,0.,4.8,0.,4.8
1986-01-24 18:25:50.960 ,2,1,3072.,4.8,0.,4.8,0.,4.8,0.,4.8
1986-01-24 18:25:55.760 ,2,1,3200.,4.8,0.,4.8,0.,4.8,0.,4.8
1986-01-24 18:26:00.560 ,6,1,3136.,4.8,0.,4.8,0.,4.8,0.,4.8
1986-01-24 18:26:05.360 ,6,1,2624.,4.8,0.,4.8,0.,4.8,0.,4.8
1986-01-24 18:26:10.160 ,6,1,2944.,4.8,0.,4.8,0.,4.8,0.,4.8
1986-01-24 18:26:14.960 ,6,1,3200.,4.8,0.,4.8,0.,4.8,0.,4.8
1986-01-24 18:26:19.760 ,6,1,3136.,4.8,0.,4.8,0.,4.8,0.,4.8
1986-01-24 18:26:24.560 ,6,0,3200.,4.8,0.,4.8,0.,4.8,0.,4.8
1986-01-24 18:26:29.360 ,6,0,3136.,4.8,0.,4.8,0.,4.8,0.,4.8
1986-01-24 18:26:34.160 ,6,0,3200.,4.8,0.,4.8,0.,4.8,0.,4.8
1986-01-24 18:26:38.960 ,6,0,3200.,4.8,0.,4.8,0.,4.8,0.,4.8
1986-01-24 18:26:43.760 ,6,0,3200.,4.8,0.,4.8,0.,4.8,0.,4.8
1986-01-24 18:26:48.560 ,6,0,3200.,4.8,0.,4.8,0.,4.8,0.,4.8
1986-01-24 18:26:53.360 ,6,0,3264.,4.8,0.,4.8,0.,4.8,0.,4.8
1986-01-24 18:26:58.160 ,6,0,3264.,4.8,0.,4.8,0.,4.8,0.,4.8
1986-01-24 18:27:02.960 ,6,0,3072.,4.8,0.,4.8,0.,4.8,0.,4.8
1986-01-24 18:27:07.760 ,6,0,3200.,4.8,0.,4.8,0.,4.8,0.,4.8
1986-01-24 18:27:12.560 ,6,0,3200.,4.8,0.,4.8,0.,4.8,0.,4.8
1986-01-24 18:27:17.360 ,6,0,3264.,4.8,0.,4.8,0.,4.8,0.,4.8
1986-01-24 18:27:22.160 ,6,0,3200.,4.8,0.,4.8,0.,4.8,0.,4.8
1986-01-24 18:27:26.960 ,6,0,3328.,4.8,0.,4.8,0.,4.8,0.,4.8
1986-01-24 18:27:31.760 ,6,0,3264.,4.8,0.,4.8,0.,4.8,0.,4.8
1986-01-24 18:27:36.560 ,6,0,3328.,4.8,0.,4.8,0.,4.8,0.,4.8
1986-01-24 18:27:41.360 ,6,0,3200.,4.8,0.,4.8,0.,4.8,0.,4.8
1986-01-24 18:27:46.160 ,6,0,3328.,4.8,0.,4.8,0.,4.8,0.,4.8
1986-01-24 18:27:50.960 ,6,0,3264.,4.8,0.,4.8,0.,4.8,0.,4.8
1986-01-24 18:27:55.760 ,6,0,3392.,4.8,0.,4.8,0.,4.8,0.,4.8
1986-01-24 18:28:00.560 ,6,0,3264.,4.8,0.,4.8,0.,4.8,1.,4.8
1986-01-24 18:28:05.360 ,6,0,3264.,4.8,0.,4.8,0.,4.8,0.,4.8
1986-01-24 18:28:10.160 ,6,0,3264.,4.8,0.,4.8,0.,4.8,0.,4.8
1986-01-24 18:28:14.960 ,6,0,3328.,4.8,0.,4.8,0.,4.8,0.,4.8
1986-01-24 18:28:19.760 ,6,0,3328.,4.8,0.,4.8,0.,4.8,0.,4.8
1986-01-24 18:28:24.560 ,6,0,3264.,4.8,0.,4.8,0.,4.8,0.,4.8
1986-01-24 18:28:29.360 ,6,0,3264.,4.8,0.,4.8,0.,4.8,0.,4.8
1986-01-24 18:28:34.160 ,6,0,3328.,4.8,0.,4.8,0.,4.8,0.,4.8
1986-01-24 18:28:38.960 ,6,0,3392.,4.8,0.,4.8,0.,4.8,0.,4.8
1986-01-24 18:28:43.760 ,6,0,3328.,4.8,0.,4.8,0.,4.8,0.,4.8
1986-01-24 18:28:48.560 ,6,0,3264.,4.8,0.,4.8,0.,4.8,0.,4.8
1986-01-24 18:28:53.360 ,6,0,3328.,4.8,0.,4.8,0.,4.8,0.,4.8
1986-01-24 18:28:58.160 ,6,0,3264.,4.8,0.,4.8,0.,4.8,0.,4.8
1986-01-24 18:29:02.960 ,6,0,3392.,4.8,0.,4.8,0.,4.8,0.,4.8
1986-01-24 18:29:07.760 ,6,0,3392.,4.8,0.,4.8,0.,4.8,0.,4.8
1986-01-24 18:29:12.560 ,6,0,3392.,4.8,0.,4.8,0.,4.8,0.,4.8
1986-01-24 18:29:17.360 ,6,0,3456.,4.8,0.,4.8,0.,4.8,0.,4.8
1986-01-24 18:29:22.160 ,6,0,3328.,4.8,0.,4.8,0.,4.8,0.,4.8
1986-01-24 18:29:26.960 ,6,0,3392.,4.8,0.,4.8,0.,4.8,0.,4.8
1986-01-24 18:29:31.760 ,6,0,3328.,4.8,0.,4.8,0.,4.8,0.,4.8
1986-01-24 18:29:36.560 ,6,0,3392.,4.8,0.,4.8,0.,4.8,0.,4.8
1986-01-24 18:29:41.360 ,6,0,3456.,4.8,0.,4.8,0.,4.8,0.,4.8
1986-01-24 18:29:46.160 ,6,0,3392.,4.8,0.,4.8,0.,4.8,0.,4.8
1986-01-24 18:29:50.960 ,6,0,3392.,4.8,0.,4.8,0.,4.8,0.,4.8
1986-01-24 18:29:55.760 ,6,0,3392.,4.8,0.,4.8,0.,4.8,0.,4.8
1986-01-24 18:30:00.560 ,6,0,3456.,4.8,0.,4.8,0.,4.8,0.,4.8
1986-01-24 18:30:05.360 ,6,0,3456.,4.8,0.,4.8,0.,4.8,0.,4.8
1986-01-24 18:30:10.160 ,6,0,3456.,4.8,0.,4.8,0.,4.8,0.,4.8
1986-01-24 18:30:14.960 ,6,0,3456.,4.8,0.,4.8,0.,4.8,0.,4.8
1986-01-24 18:30:19.760 ,6,0,3328.,4.8,0.,4.8,0.,4.8,0.,4.8
1986-01-24 18:30:24.560 ,6,0,3392.,4.8,0.,4.8,0.,4.8,0.,4.8
1986-01-24 18:30:29.360 ,6,0,3456.,4.8,0.,4.8,0.,4.8,0.,4.8
1986-01-24 18:30:34.160 ,6,0,3328.,4.8,0.,4.8,0.,4.8,0.,4.8
1986-01-24 18:30:38.960 ,6,0,3456.,4.8,0.,4.8,0.,4.8,0.,4.8
1986-01-24 18:30:43.760 ,6,0,3520.,4.8,0.,4.8,0.,4.8,0.,4.8
1986-01-24 18:30:48.560 ,6,0,3520.,4.8,0.,4.8,0.,4.8,0.,4.8
1986-01-24 18:30:53.360 ,6,0,3392.,4.8,0.,4.8,0.,4.8,0.,4.8
1986-01-24 18:30:58.160 ,6,0,3456.,4.8,0.,4.8,0.,4.8,0.,4.8
1986-01-24 18:31:02.960 ,6,0,3520.,4.8,0.,4.8,0.,4.8,0.,4.8
1986-01-24 18:31:07.760 ,6,0,3456.,4.8,0.,4.8,0.,4.8,0.,4.8
1986-01-24 18:31:12.560 ,6,0,3520.,4.8,0.,4.8,0.,4.8,0.,4.8
1986-01-24 18:31:17.360 ,6,0,3456.,4.8,0.,4.8,0.,4.8,0.,4.8
1986-01-24 18:31:22.160 ,6,0,3456.,4.8,0.,4.8,0.,4.8,0.,4.8
1986-01-24 18:31:26.960 ,6,0,3456.,4.8,0.,4.8,0.,4.8,0.,4.8
1986-01-24 18:31:31.760 ,6,0,3456.,4.8,0.,4.8,0.,4.8,0.,4.8
1986-01-24 18:31:36.560 ,6,0,3456.,4.8,0.,4.8,0.,4.8,0.,4.8
1986-01-24 18:31:41.360 ,6,0,3392.,4.8,0.,4.8,0.,4.8,0.,4.8
1986-01-24 18:31:46.160 ,6,0,3456.,4.8,0.,4.8,0.,4.8,0.,4.8
1986-01-24 18:31:50.960 ,6,0,3520.,4.8,0.,4.8,0.,4.8,0.,4.8
1986-01-24 18:31:55.760 ,6,0,3456.,4.8,0.,4.8,0.,4.8,0.,4.8
1986-01-24 18:32:00.560 ,6,0,3456.,4.8,0.,4.8,0.,4.8,0.,4.8
1986-01-24 18:32:05.360 ,6,0,3456.,4.8,0.,4.8,0.,4.8,0.,4.8
1986-01-24 18:32:10.160 ,6,0,3584.,4.8,0.,4.8,0.,4.8,0.,4.8
1986-01-24 18:32:14.960 ,6,0,3392.,4.8,0.,4.8,0.,4.8,0.,4.8
1986-01-24 18:32:19.760 ,6,0,3520.,4.8,0.,4.8,0.,4.8,0.,4.8
1986-01-24 18:32:24.560 ,6,0,3520.,4.8,0.,4.8,0.,4.8,0.,4.8
1986-01-24 18:32:29.360 ,6,0,3392.,4.8,0.,4.8,0.,4.8,0.,4.8